• In Uzbekistan
  • List of Countries
  • For 7 days
  • Water Temperature
  • Satellite Maps
  • Weather Map
  • Weather Widgets
  • user-avatar
    Login

    Hourly Weather Stuposiany

    Today, 21 April, Saturday

    Time Temperature Precipitation Wind Pressure Humidity
    00:00 +8°C° 0 mm 1 mps 718 mmHg 77%
    01:00 +8°C° 0 mm 1 mps 718 mmHg 77%
    02:00 +7°C° 0 mm 1 mps 717 mmHg 74%
    03:00 +7°C° 0 mm 1 mps 717 mmHg 73%
    04:00 +7°C° 0 mm 1 mps 716 mmHg 71%
    05:00 +7°C° 0 mm 1 mps 716 mmHg 69%
    06:00 +8°C° 0 mm 2 mps 716 mmHg 65%
    07:00 +10°C° 0 mm 2 mps 716 mmHg 60%
    08:00 +13°C° 0 mm 2 mps 716 mmHg 56%
    09:00 +14°C° 0 mm 3 mps 716 mmHg 52%
    10:00 +16°C° 0 mm 3 mps 716 mmHg 48%
    11:00 +18°C° 0 mm 4 mps 716 mmHg 44%
    12:00 +19°C° 0 mm 4 mps 715 mmHg 44%
    13:00 +20°C° 0 mm 4 mps 715 mmHg 43%
    14:00 +21°C° 0 mm 4 mps 715 mmHg 43%
    15:00 +21°C° 0 mm 4 mps 715 mmHg 46%
    16:00 +20°C° 0 mm 4 mps 714 mmHg 49%
    17:00 +20°C° 0 mm 4 mps 714 mmHg 53%
    18:00 +18°C° 0 mm 3 mps 714 mmHg 61%
    19:00 +16°C° 0 mm 3 mps 714 mmHg 69%
    20:00 +13°C° 0 mm 3 mps 713 mmHg 77%
    21:00 +14°C° 0 mm 2 mps 714 mmHg 78%
    22:00 +14°C° 0 mm 2 mps 714 mmHg 80%
    23:00 +13°C° 0 mm 1 mps 714 mmHg 81%

    Tomorrow, 22 April, Sunday

    Time Temperature Precipitation Wind Pressure Humidity
    00:00 +13°C° 0 mm 1 mps 714 mmHg 83%
    01:00 +13°C° 0 mm 1 mps 714 mmHg 85%
    02:00 +12°C° 0 mm 1 mps 714 mmHg 86%
    03:00 +11°C° 0 mm 1 mps 714 mmHg 88%
    04:00 +10°C° 0 mm 1 mps 714 mmHg 90%
    05:00 +10°C° 0 mm 1 mps 714 mmHg 92%
    06:00 +11°C° 0 mm 1 mps 714 mmHg 85%
    07:00 +12°C° 0 mm 1 mps 715 mmHg 78%
    08:00 +13°C° 0 mm 1 mps 715 mmHg 72%
    09:00 +15°C° 0 mm 1 mps 715 mmHg 63%
    10:00 +16°C° 0 mm 2 mps 715 mmHg 54%
    11:00 +17°C° 0 mm 2 mps 715 mmHg 44%
    12:00 +18°C° 0 mm 2 mps 715 mmHg 42%
    13:00 +18°C° 0 mm 3 mps 715 mmHg 40%
    14:00 +19°C° 0 mm 3 mps 714 mmHg 38%
    15:00 +19°C° 0 mm 3 mps 714 mmHg 39%
    16:00 +18°C° 0 mm 3 mps 714 mmHg 40%
    17:00 +18°C° 0 mm 3 mps 713 mmHg 42%
    18:00 +16°C° 0 mm 2 mps 713 mmHg 49%
    19:00 +14°C° 0 mm 1 mps 713 mmHg 56%
    20:00 +11°C° 0 mm 1 mps 713 mmHg 63%
    21:00 +11°C° 0 mm 1 mps 713 mmHg 64%
    22:00 +10°C° 0 mm 1 mps 713 mmHg 64%
    23:00 +10°C° 0 mm 1 mps 713 mmHg 65%

    Day after tomorrow, 23 April, Monday

    Time Temperature Precipitation Wind Pressure Humidity
    00:00 +9°C° 0 mm 1 mps 713 mmHg 65%
    01:00 +9°C° 0 mm 1 mps 713 mmHg 66%
    02:00 +9°C° 0 mm 1 mps 713 mmHg 66%
    03:00 +8°C° 0 mm 1 mps 713 mmHg 66%
    04:00 +8°C° 0 mm 1 mps 713 mmHg 67%
    05:00 +8°C° 0 mm 1 mps 713 mmHg 67%
    06:00 +10°C° 0 mm 1 mps 713 mmHg 62%
    07:00 +11°C° 0 mm 0 mps 713 mmHg 57%
    08:00 +13°C° 0 mm 0 mps 713 mmHg 53%
    09:00 +16°C° 0 mm 1 mps 713 mmHg 48%
    10:00 +19°C° 0 mm 1 mps 713 mmHg 44%
    11:00 +20°C° 0 mm 1 mps 713 mmHg 40%
    12:00 +21°C° 0 mm 1 mps 713 mmHg 39%
    13:00 +21°C° 0 mm 2 mps 713 mmHg 39%
    14:00 +23°C° 0 mm 2 mps 713 mmHg 38%
    15:00 +21°C° 0 mm 2 mps 712 mmHg 41%
    16:00 +21°C° 0 mm 2 mps 712 mmHg 44%
    17:00 +21°C° 0 mm 2 mps 711 mmHg 47%
    18:00 +19°C° 0.2 mm 2 mps 711 mmHg 57%
    19:00 +17°C° 0.2 mm 2 mps 710 mmHg 67%
    20:00 +15°C° 0.2 mm 2 mps 710 mmHg 77%
    21:00 +14°C° 0.6 mm 2 mps 710 mmHg 81%
    22:00 +14°C° 0.6 mm 2 mps 710 mmHg 85%
    23:00 +13°C° 0.6 mm 2 mps 710 mmHg 89%

    24 April, Tuesday

    Time Temperature Precipitation Wind Pressure Humidity
    00:00 +13°C° 0.6 mm 2 mps 710 mmHg 90%
    01:00 +13°C° 0.6 mm 2 mps 710 mmHg 92%
    02:00 +13°C° 0.6 mm 2 mps 710 mmHg 94%
    03:00 +13°C° 0.3 mm 2 mps 710 mmHg 95%
    04:00 +13°C° 0.3 mm 1 mps 710 mmHg 96%
    05:00 +12°C° 0.3 mm 1 mps 710 mmHg 96%
    06:00 +13°C° 0.1 mm 2 mps 711 mmHg 94%
    07:00 +13°C° 0.1 mm 2 mps 711 mmHg 92%
    08:00 +13°C° 0.1 mm 3 mps 711 mmHg 89%
    09:00 +13°C° 0.1 mm 3 mps 712 mmHg 86%
    10:00 +13°C° 0.1 mm 4 mps 712 mmHg 82%
    11:00 +14°C° 0.1 mm 4 mps 713 mmHg 78%
    12:00 +15°C° 0.1 mm 4 mps 713 mmHg 71%
    13:00 +17°C° 0.1 mm 4 mps 713 mmHg 63%
    14:00 +18°C° 0.1 mm 4 mps 713 mmHg 55%
    15:00 +17°C° 0 mm 4 mps 713 mmHg 55%
    16:00 +17°C° 0 mm 3 mps 712 mmHg 55%
    17:00 +17°C° 0 mm 3 mps 712 mmHg 55%
    18:00 +15°C° 0 mm 2 mps 712 mmHg 62%
    19:00 +13°C° 0 mm 2 mps 712 mmHg 70%
    20:00 +12°C° 0 mm 1 mps 712 mmHg 77%
    21:00 +11°C° 0 mm 1 mps 712 mmHg 78%
    22:00 +11°C° 0 mm 1 mps 713 mmHg 79%
    23:00 +11°C° 0 mm 1 mps 713 mmHg 80%

    25 April, Wednesday

    Time Temperature Precipitation Wind Pressure Humidity
    00:00 +10°C° 0 mm 2 mps 713 mmHg 79%
    01:00 +9°C° 0 mm 2 mps 713 mmHg 78%
    02:00 +9°C° 0 mm 2 mps 713 mmHg 77%
    03:00 +9°C° 0 mm 2 mps 713 mmHg 79%
    04:00 +9°C° 0 mm 2 mps 713 mmHg 81%
    05:00 +9°C° 0 mm 2 mps 712 mmHg 83%
    06:00 +10°C° 0 mm 2 mps 713 mmHg 80%
    07:00 +13°C° 0 mm 2 mps 713 mmHg 77%
    08:00 +13°C° 0 mm 3 mps 713 mmHg 74%
    09:00 +15°C° 0 mm 4 mps 713 mmHg 69%
    10:00 +17°C° 0 mm 4 mps 713 mmHg 63%
    11:00 +19°C° 0 mm 5 mps 713 mmHg 58%
    12:00 +19°C° 0 mm 6 mps 712 mmHg 61%
    13:00 +19°C° 0 mm 6 mps 712 mmHg 63%
    14:00 +19°C° 0 mm 6 mps 711 mmHg 66%
    15:00 +20°C° 0.1 mm 6 mps 711 mmHg 64%
    16:00 +20°C° 0.1 mm 6 mps 711 mmHg 62%
    17:00 +21°C° 0.1 mm 6 mps 711 mmHg 60%
    18:00 +20°C° 0.2 mm 5 mps 710 mmHg 65%
    19:00 +17°C° 0.2 mm 5 mps 710 mmHg 69%
    20:00 +17°C° 0.2 mm 4 mps 710 mmHg 73%
    21:00 +15°C° 1.2 mm 4 mps 710 mmHg 80%
    22:00 +14°C° 1.2 mm 3 mps 711 mmHg 86%
    23:00 +13°C° 1.2 mm 3 mps 711 mmHg 93%

    26 April, Thursday

    Time Temperature Precipitation Wind Pressure Humidity
    00:00 +14°C° 0.7 mm 2 mps 711 mmHg 94%
    01:00 +13°C° 0.7 mm 2 mps 711 mmHg 95%
    02:00 +13°C° 0.7 mm 1 mps 711 mmHg 96%
    03:00 +12°C° 0.2 mm 1 mps 712 mmHg 96%
    04:00 +12°C° 0.2 mm 1 mps 712 mmHg 96%
    05:00 +11°C° 0.2 mm 1 mps 712 mmHg 96%
    06:00 +12°C° 0 mm 1 mps 712 mmHg 93%
    07:00 +13°C° 0 mm 1 mps 713 mmHg 90%
    08:00 +13°C° 0 mm 1 mps 713 mmHg 86%
    09:00 +14°C° 0 mm 1 mps 713 mmHg 82%
    10:00 +16°C° 0 mm 1 mps 713 mmHg 78%
    11:00 +18°C° 0 mm 1 mps 713 mmHg 74%
    12:00 +19°C° 0 mm 1 mps 712 mmHg 70%
    13:00 +19°C° 0 mm 2 mps 712 mmHg 66%
    14:00 +20°C° 0 mm 2 mps 712 mmHg 62%
    15:00 +19°C° 0.6 mm 2 mps 711 mmHg 66%
    16:00 +19°C° 0.6 mm 2 mps 711 mmHg 71%
    17:00 +18°C° 0.6 mm 2 mps 710 mmHg 75%
    18:00 +17°C° 1.7 mm 2 mps 710 mmHg 81%
    19:00 +15°C° 1.7 mm 2 mps 710 mmHg 86%
    20:00 +13°C° 1.7 mm 2 mps 709 mmHg 92%
    21:00 +12°C° 1.9 mm 3 mps 710 mmHg 93%
    22:00 +11°C° 1.9 mm 3 mps 710 mmHg 93%
    23:00 +10°C° 1.9 mm 3 mps 710 mmHg 94%
    Show more